SRR7803 EGNX-EDDK

Flight info

Callsign SRR7803
Flight time 1h 12m
Altitude 33000
Route SAPCO Y53 DTY DCT SILVA UM605 BENSU Q70 BIG UL9 KONAN UL607 SPI/N0443F230 T857 DENOV T861 ERUKI ERUKI1G
Aircraft B77L/H-SDE1E2E3FGHIJ2J3J4J5M1RWXY/LB1D1

Departure

Time 2026-05-04 06:50
Airport East Midlands Airport (EGNX)

Arrival

Time 2026-05-04 08:03
Airport Cologne Bonn Airport (EDDK)
Time Latitude Longitude Altitude Speed Heading
2026-05-04 06:22 52.82836 -1.32019 305 ft 0 kts 178°
2026-05-04 06:40 52.82844 -1.32020 305 ft 4 kts 178°
2026-05-04 06:40 52.82869 -1.32017 304 ft 4 kts 211°
2026-05-04 06:40 52.82879 -1.31993 304 ft 1 kts 268°
2026-05-04 06:40 52.82880 -1.31953 305 ft 4 kts 268°
2026-05-04 06:41 52.82880 -1.31935 306 ft 1 kts 268°
2026-05-04 06:44 52.82879 -1.32031 305 ft 16 kts 268°
2026-05-04 06:44 52.82883 -1.32135 307 ft 7 kts 296°
2026-05-04 06:45 52.82936 -1.32214 307 ft 12 kts 296°
2026-05-04 06:45 52.82938 -1.32392 306 ft 19 kts 268°
2026-05-04 06:45 52.82933 -1.32610 307 ft 19 kts 267°
2026-05-04 06:45 52.82930 -1.32828 306 ft 19 kts 269°
2026-05-04 06:46 52.82928 -1.33046 306 ft 19 kts 269°
2026-05-04 06:46 52.82924 -1.33264 308 ft 19 kts 266°
2026-05-04 06:46 52.82917 -1.33481 312 ft 19 kts 270°
2026-05-04 06:46 52.82914 -1.33700 309 ft 19 kts 267°
2026-05-04 06:48 52.83004 -1.34938 309 ft 18 kts 358°
2026-05-04 06:48 52.83062 -1.34819 309 ft 0 kts 85°
2026-05-04 06:50 52.83120 -1.28574 1334 ft 178 kts 91°
2026-05-04 06:51 52.82998 -1.26422 1617 ft 203 kts 94°
2026-05-04 06:51 52.82727 -1.24064 2095 ft 217 kts 109°
2026-05-04 06:51 52.81850 -1.21867 2287 ft 245 kts 132°
2026-05-04 06:51 52.80643 -1.19798 2933 ft 253 kts 132°
2026-05-04 06:52 52.79409 -1.17631 3641 ft 263 kts 132°
2026-05-04 06:52 52.78105 -1.15461 4356 ft 268 kts 141°
2026-05-04 06:52 52.76381 -1.14269 4981 ft 275 kts 179°
2026-05-04 06:52 52.74575 -1.14962 5905 ft 265 kts 215°
2026-05-04 06:53 52.73255 -1.17008 6604 ft 262 kts 230°
2026-05-04 06:53 52.71970 -1.19198 7281 ft 268 kts 224°
2026-05-04 06:53 52.70560 -1.21245 8082 ft 269 kts 221°
2026-05-04 06:53 52.69106 -1.23215 8775 ft 271 kts 220°
2026-05-04 06:54 52.67620 -1.25186 8969 ft 277 kts 220°
2026-05-04 06:54 52.66103 -1.27175 8963 ft 280 kts 220°
2026-05-04 06:54 52.64739 -1.28952 8801 ft 279 kts 220°
2026-05-04 06:54 52.63470 -1.30602 8851 ft 276 kts 218°
2026-05-04 06:55 52.61962 -1.32555 8921 ft 276 kts 218°
2026-05-04 06:55 52.60449 -1.34508 8980 ft 276 kts 217°
2026-05-04 06:55 52.58785 -1.36068 8996 ft 277 kts 199°
2026-05-04 06:55 52.56889 -1.36654 9017 ft 280 kts 180°
2026-05-04 06:56 52.54951 -1.36257 9010 ft 282 kts 166°
2026-05-04 06:57 52.41001 -1.26894 11690 ft 364 kts 157°
2026-05-04 06:58 52.38639 -1.25289 12346 ft 371 kts 157°
2026-05-04 06:58 52.36240 -1.23665 13079 ft 374 kts 158°
2026-05-04 06:58 52.33823 -1.22033 13832 ft 377 kts 158°
2026-05-04 06:58 52.31383 -1.20388 14542 ft 381 kts 158°
2026-05-04 06:59 52.28912 -1.18724 15223 ft 385 kts 158°
2026-05-04 06:59 52.26448 -1.17067 15883 ft 389 kts 158°
2026-05-04 06:59 52.23929 -1.15375 16540 ft 393 kts 158°
2026-05-04 06:59 52.21387 -1.13670 17190 ft 396 kts 158°
2026-05-04 07:01 52.02046 -1.06145 21320 ft 421 kts 168°
2026-05-04 07:01 51.99161 -1.05200 21873 ft 425 kts 168°
2026-05-04 07:02 51.96255 -1.04247 22413 ft 428 kts 168°
2026-05-04 07:02 51.93323 -1.03286 22933 ft 431 kts 168°
2026-05-04 07:02 51.90405 -1.02330 23452 ft 434 kts 168°
2026-05-04 07:02 51.87433 -1.01359 23936 ft 438 kts 168°
2026-05-04 07:03 51.84430 -1.00381 24435 ft 441 kts 168°
2026-05-04 07:03 51.81407 -0.99405 24921 ft 444 kts 169°
2026-05-04 07:03 51.78362 -0.98429 25401 ft 447 kts 169°
2026-05-04 07:03 51.75302 -0.97452 25866 ft 451 kts 169°
2026-05-04 07:04 51.72210 -0.96464 26337 ft 454 kts 169°
2026-05-04 07:04 51.69099 -0.95469 26792 ft 457 kts 169°
2026-05-04 07:04 51.65968 -0.94469 27236 ft 460 kts 169°
2026-05-04 07:04 51.62822 -0.93430 27617 ft 460 kts 166°
2026-05-04 07:05 51.59844 -0.91487 27844 ft 467 kts 147°
2026-05-04 07:05 51.57393 -0.88070 28250 ft 469 kts 130°
2026-05-04 07:05 51.55614 -0.83680 28739 ft 470 kts 114°
2026-05-04 07:05 51.54387 -0.78828 29069 ft 471 kts 111°
2026-05-04 07:06 51.51983 -0.69006 29705 ft 478 kts 111°
2026-05-04 07:06 51.50743 -0.64054 30130 ft 478 kts 112°
2026-05-04 07:06 51.49909 -0.60770 30446 ft 477 kts 112°
2026-05-04 07:07 51.48221 -0.54194 31112 ft 475 kts 112°
2026-05-04 07:08 51.39353 -0.20196 33001 ft 473 kts 112°
2026-05-04 07:09 51.38080 -0.15351 32996 ft 469 kts 112°
2026-05-04 07:09 51.35545 -0.05733 33007 ft 470 kts 113°
2026-05-04 07:10 51.33240 0.03460 33003 ft 470 kts 108°
2026-05-04 07:12 51.28126 0.43802 33002 ft 473 kts 101°
2026-05-04 07:12 51.26878 0.54110 33001 ft 472 kts 101°
2026-05-04 07:13 51.25807 0.62652 33000 ft 472 kts 102°
2026-05-04 07:13 51.24440 0.72900 33000 ft 471 kts 102°
2026-05-04 07:14 51.21209 0.98511 33001 ft 471 kts 101°
2026-05-04 07:15 51.19885 1.08751 33000 ft 471 kts 102°
2026-05-04 07:15 51.18541 1.18960 33003 ft 471 kts 102°
2026-05-04 07:16 51.17203 1.29104 33002 ft 471 kts 102°
2026-05-04 07:16 51.16054 1.39351 33001 ft 470 kts 95°
2026-05-04 07:17 51.15588 1.49745 33003 ft 470 kts 94°
2026-05-04 07:17 51.15122 1.60152 33000 ft 470 kts 94°
2026-05-04 07:18 51.14615 1.70539 33002 ft 470 kts 94°
2026-05-04 07:18 51.14091 1.80864 33002 ft 470 kts 95°
2026-05-04 07:19 51.13557 1.91244 33000 ft 470 kts 95°
2026-05-04 07:19 51.13015 2.01632 33001 ft 470 kts 95°
2026-05-04 07:20 51.12463 2.12006 33000 ft 470 kts 95°
2026-05-04 07:20 51.11907 2.22313 33002 ft 470 kts 95°
2026-05-04 07:22 51.09541 2.63785 33002 ft 470 kts 98°
2026-05-04 07:23 51.08021 2.73890 33010 ft 470 kts 107°
2026-05-04 07:23 51.06153 2.83843 33000 ft 470 kts 107°
2026-05-04 07:24 51.04318 2.93750 33002 ft 470 kts 106°
2026-05-04 07:24 51.02484 3.03737 33002 ft 470 kts 106°
2026-05-04 07:26 50.95094 3.43571 33001 ft 470 kts 107°
2026-05-04 07:27 50.93235 3.53459 33000 ft 470 kts 107°
2026-05-04 07:27 50.91357 3.63400 33002 ft 470 kts 107°
2026-05-04 07:28 50.89454 3.73309 33000 ft 470 kts 107°
2026-05-04 07:28 50.87529 3.83212 33002 ft 470 kts 107°
2026-05-04 07:29 50.85601 3.93101 33001 ft 470 kts 107°
2026-05-04 07:29 50.83665 4.02990 33002 ft 470 kts 107°
2026-05-04 07:30 50.81722 4.12875 33001 ft 470 kts 107°
2026-05-04 07:30 50.79783 4.22685 33002 ft 470 kts 107°
2026-05-04 07:31 50.77823 4.32551 33002 ft 470 kts 107°
2026-05-04 07:33 50.69975 4.72001 33001 ft 471 kts 107°
2026-05-04 07:33 50.68062 4.81891 33002 ft 471 kts 107°
2026-05-04 07:34 50.66142 4.91697 33001 ft 471 kts 107°
2026-05-04 07:34 50.64150 5.01535 33001 ft 471 kts 108°
2026-05-04 07:35 50.62125 5.11342 33002 ft 471 kts 108°
2026-05-04 07:35 50.60098 5.21158 33001 ft 471 kts 108°
2026-05-04 07:36 50.58071 5.30955 33001 ft 471 kts 108°
2026-05-04 07:38 50.52377 5.65643 31952 ft 481 kts 83°
2026-05-04 07:38 50.53076 5.70769 31145 ft 478 kts 72°
2026-05-04 07:38 50.54173 5.75689 30404 ft 476 kts 70°
2026-05-04 07:38 50.55272 5.80575 29881 ft 468 kts 71°
2026-05-04 07:39 50.56330 5.85396 29346 ft 463 kts 71°
2026-05-04 07:39 50.57350 5.90164 28817 ft 457 kts 71°
2026-05-04 07:39 50.58344 5.94890 28297 ft 452 kts 72°
2026-05-04 07:39 50.59308 5.99511 27789 ft 447 kts 72°
2026-05-04 07:40 50.60269 6.04136 27292 ft 442 kts 72°
2026-05-04 07:40 50.61220 6.08712 26795 ft 438 kts 72°
2026-05-04 07:40 50.62160 6.13241 26298 ft 433 kts 72°
2026-05-04 07:40 50.62960 6.17787 25802 ft 429 kts 79°
2026-05-04 07:41 50.63353 6.22426 25312 ft 425 kts 86°
2026-05-04 07:41 50.63417 6.27060 24812 ft 421 kts 93°
2026-05-04 07:41 50.63166 6.31636 24326 ft 417 kts 95°
2026-05-04 07:41 50.62888 6.36177 23835 ft 414 kts 95°
2026-05-04 07:42 50.62639 6.40675 23357 ft 411 kts 95°
2026-05-04 07:42 50.62405 6.45132 22878 ft 407 kts 95°
2026-05-04 07:42 50.62176 6.49571 22415 ft 404 kts 95°
2026-05-04 07:42 50.61949 6.53914 21939 ft 401 kts 95°
2026-05-04 07:43 50.61720 6.58271 21473 ft 398 kts 95°
2026-05-04 07:43 50.61489 6.62606 21011 ft 395 kts 95°
2026-05-04 07:43 50.61258 6.66901 20553 ft 392 kts 95°
2026-05-04 07:43 50.61144 6.71143 20072 ft 384 kts 84°
2026-05-04 07:44 50.61871 6.75148 19639 ft 383 kts 63°
2026-05-04 07:44 50.63375 6.78614 19219 ft 387 kts 46°
2026-05-04 07:44 50.65433 6.81433 18795 ft 396 kts 38°
2026-05-04 07:44 50.67631 6.84097 18321 ft 399 kts 38°
2026-05-04 07:45 50.69769 6.86739 18149 ft 388 kts 38°
2026-05-04 07:45 50.71847 6.89364 17958 ft 377 kts 39°
2026-05-04 07:45 50.73841 6.91951 17800 ft 366 kts 42°
2026-05-04 07:45 50.75615 6.94758 17615 ft 355 kts 47°
2026-05-04 07:46 50.77403 6.97270 17444 ft 338 kts 30°
2026-05-04 07:46 50.79562 6.98486 17307 ft 326 kts
2026-05-04 07:46 50.81776 6.98308 17183 ft 314 kts 346°
2026-05-04 07:46 50.83798 6.97206 17052 ft 303 kts 333°
2026-05-04 07:47 50.85496 6.95365 16916 ft 290 kts 317°
2026-05-04 07:47 50.86936 6.93207 16771 ft 280 kts 316°
2026-05-04 07:47 50.88344 6.91086 16431 ft 277 kts 316°
2026-05-04 07:49 50.98925 6.75540 13947 ft 252 kts 317°
2026-05-04 07:49 51.00226 6.73628 13660 ft 258 kts 317°
2026-05-04 07:50 51.01559 6.71669 13342 ft 262 kts 317°
2026-05-04 07:50 51.02898 6.69699 13009 ft 262 kts 317°
2026-05-04 07:50 51.04224 6.67746 12689 ft 258 kts 317°
2026-05-04 07:50 51.05532 6.65819 12363 ft 255 kts 317°
2026-05-04 07:51 51.06825 6.63913 12037 ft 251 kts 317°
2026-05-04 07:51 51.08092 6.62043 11738 ft 246 kts 317°
2026-05-04 07:51 51.09337 6.60203 11439 ft 242 kts 317°
2026-05-04 07:51 51.10564 6.58390 11157 ft 242 kts 317°
2026-05-04 07:52 51.11816 6.56537 10874 ft 249 kts 317°
2026-05-04 07:52 51.13096 6.54642 10556 ft 252 kts 317°
2026-05-04 07:52 51.14436 6.52877 10212 ft 247 kts 333°
2026-05-04 07:52 51.16038 6.52296 9914 ft 238 kts
2026-05-04 07:53 51.17582 6.53055 9680 ft 233 kts 30°
2026-05-04 07:54 51.19139 6.67593 7767 ft 243 kts 137°
2026-05-04 07:55 51.17881 6.69393 7466 ft 241 kts 138°
2026-05-04 07:55 51.16640 6.71159 7168 ft 237 kts 138°
2026-05-04 07:55 51.15431 6.72911 6876 ft 232 kts 137°
2026-05-04 07:55 51.14254 6.74629 6598 ft 227 kts 137°
2026-05-04 07:56 51.13102 6.76317 6325 ft 224 kts 137°
2026-05-04 07:56 51.11944 6.78017 6068 ft 230 kts 137°
2026-05-04 07:56 51.10753 6.79765 5813 ft 234 kts 137°
2026-05-04 07:56 51.09553 6.81525 5507 ft 233 kts 137°
2026-05-04 07:57 51.08369 6.83261 5212 ft 229 kts 137°
2026-05-04 07:57 51.07206 6.84965 4927 ft 224 kts 137°
2026-05-04 07:57 51.06071 6.86627 4660 ft 225 kts 137°
2026-05-04 07:57 51.04912 6.88324 4402 ft 228 kts 137°
2026-05-04 07:58 51.03742 6.90036 4208 ft 227 kts 137°
2026-05-04 07:58 51.02600 6.91705 4031 ft 218 kts 137°
2026-05-04 07:58 51.01495 6.93321 3753 ft 213 kts 137°
2026-05-04 07:58 51.00414 6.94900 3466 ft 208 kts 137°
2026-05-04 07:59 50.99363 6.96435 3190 ft 202 kts 137°
2026-05-04 07:59 50.98350 6.97912 2930 ft 193 kts 137°
2026-05-04 07:59 50.97390 6.99313 2743 ft 180 kts 137°
2026-05-04 07:59 50.96508 7.00599 2473 ft 165 kts 137°
2026-05-04 08:00 50.95726 7.01739 2253 ft 144 kts 137°
2026-05-04 08:00 50.94975 7.02834 2099 ft 151 kts 137°
2026-05-04 08:00 50.94191 7.03975 1878 ft 153 kts 137°
2026-05-04 08:02 50.88798 7.11819 461 ft 148 kts 137°
2026-05-04 08:02 50.88040 7.12919 298 ft 149 kts 137°
2026-05-04 08:02 50.87309 7.13984 247 ft 130 kts 139°
2026-05-04 08:03 50.86804 7.14709 270 ft 55 kts 137°
2026-05-04 08:03 50.86564 7.15058 281 ft 29 kts 137°
2026-05-04 08:03 50.86401 7.15251 288 ft 29 kts 149°
2026-05-04 08:03 50.86212 7.15337 297 ft 21 kts 168°
2026-05-04 08:04 50.86074 7.15312 300 ft 21 kts 221°
2026-05-04 08:04 50.86071 7.15100 298 ft 21 kts 309°
2026-05-04 08:04 50.86179 7.14941 294 ft 22 kts 317°
2026-05-04 08:04 50.86295 7.14773 283 ft 23 kts 317°
2026-05-04 08:05 50.86419 7.14594 275 ft 25 kts 317°
2026-05-04 08:05 50.86535 7.14425 268 ft 23 kts 317°
2026-05-04 08:05 50.86658 7.14247 265 ft 24 kts 317°
2026-05-04 08:05 50.86799 7.14106 259 ft 24 kts 322°
2026-05-04 08:06 50.86925 7.13918 254 ft 26 kts 317°
2026-05-04 08:06 50.87066 7.13715 246 ft 28 kts 318°
2026-05-04 08:06 50.87207 7.13511 240 ft 28 kts 317°
2026-05-04 08:06 50.87376 7.13266 237 ft 36 kts 317°
2026-05-04 08:08 50.87635 7.12701 237 ft 0 kts 228°